Location: Newark
(52.9300°N, 3.3400°W)
Time: 11:40:15
(UTC+00:00)

X-37B - Pass Details

Date: 14 March 2021
Orbit: 380 x 394 km, 45.0° (Epoch: 07 April)

Event Time Altitude Azimuth Distance (km) Brightness Sun altitude
Rises 19:31:40 0° 224° (SW) 2,267 4.9 -12.1°
Reaches altitude 10° 19:34:21 10° 200° (SSW) 1,418 3.5 -12.5°
Maximum altitude 19:36:14 15° 163° (SSE) 1,170 2.7 -12.8°
Enters shadow 19:36:47 14° 151° (SSE) 1,193 2.7 -12.9°
